リー彗星

C/1999 E1 ( Li )

English version
Home page
Updated on May 27, 2001

---------------------------------------------------------------------

・ プロフィール

発見日 1999年 3月13日
発見光度 16.5等
発見者 W.-d. Li (Lick Observatory)

・ 写真集

・ 軌道要素

   The following improved orbital elements by Kenji Muraoka, are
  from 290 observations 1999 Jan. 22 to 2001 Mar. 28, perturbations
  by 9 Planets, Moon and 5 minor planets were taken into account. 
   The mean residual is +/- 0.66 arc seconds.

      Epoch  =  1999 Jan. 22.0  TT       JDT = 2451200.5
          T  =  1999 Jan. 31.70508       +/- 0.00175 (m.e.) TT
       Peri. =  329.75817                +/- 0.00018
       Node  =  127.83279                +/- 0.00020   (2000.0)
       Incl. =   46.88668                +/- 0.00012
          q  =    3.9199578              +/- 0.0001610 AU
          e  =    0.7597711              +/- 0.0000068
          a  =   16.3175939              +/- 0.0004884 AU
          n  =    0.01495271             +/- 0.00000067
          P  =   65.915                  +/- 0.0029595  years
                                        (+/- 1.08 days)

・ 星図

・ 光度変化

        m1 = 6.5 + 5 logΔ + 10.0 log r

---------------------------------------------------------------------

軌道要素は村岡健治氏の計算によるものです。
星図は StellaNavigator Ver.2.0 for Windows (アストロアーツ 編著 / アスキー出版局刊) で作成したものです。
光度グラフはComet for Windowsで作成したものです。

---------------------------------------------------------------------

Copyright(C) Seiichi Yoshida (comet@aerith.net). All rights reserved.